Showing default

AAC-HSI-SAT3, 58848

Orbit data source: Space-Track

AAC-HSI-SAT3, 58848 is a UK payload satellite in SSO that was launched on Sat, 11 Nov 2023 UTC via an FALCON 9 launch vehicle from the Air Force Western Test Range (AFWTR). Payload-class satellites include a variety of spacecraft equipped with specific instruments for various scientific and technological missions. These include communications satellites like Starlink; space stations such as the ISS; scientific satellites like the Hubble; Earth observation satellites from companies like Planet Labs, Umbra, and HawkEye 360; GPS; miniature CubeSats for education and research; and military/defense satellites.

Loading next visibility...
Identifier
58848, 2023-174DH
Orbit
SSO
Country
Flag of UKUK
Related business
Manufacturer
AAC ClydeSpace
Mission
Operational Commercial Imaging
Bus & Motor
CUBESAT 6U, Unknown motor
Mass
10 kg wet, ~10 kg dry
Launch date (UTC)
2023-11-11 (3 years ago)
Launch vehicle
FALCON 9
Launch site
Air Force Western Test Range (AFWTR)
Object type
Payload
Rocket body
Debris
Shape & HBR
Box + 2 Pan, 1.0 m
Radar Cross Section
0.092 m², Medium (>0.1 m² and < 1m²)

Expand to show TLE details & history
Last TLE update: 6 hours ago

TLE from 6 hours ago
0 AAC-HSI-SAT3
1 58848U 23174DH  26222.86257736  .00001211  00000-0  66327-4 0  9991
2 58848  97.3371 280.4444 0010825 168.7957 191.3520 15.16007438152183
Epoch: 2026-08-10T20:42Z
TLE epoch observation values (Epoch: 2026-08-10T20:42:06.683Z)
Latitude
0.00002°
Longitude
10.57743°
Altitude
528.33 km
Speed
7.595 km/s
True Right ascension
18h 41m 46s
True Declination
0° 00' 00"
Sunlit
Object was in full shadow at epoch
Visualization orbit readout
Latitude
Unknown
Longitude
Unknown
Altitude
Unknown
Speed
Unknown
Apparent Right ascension
Unknown
Apparent Declination
Unknown
Sunlit
N/A
Visualization observer readout
Local Sidereal Time
17:01:25
Azimuth
Unknown
Elevation
Unknown
Doppler factor
Unknown
Orbital elements
Apogee altitude
522.352 km
Perigee altitude
507.428 km
Semi-major axis
6,893.027 km
Eccentricity
0.00108
Inclination
97.3371°
RAAN
280.4444°
Arg. of periapsis
168.7957°
True anomaly
191.32762°
Mean anomaly
191.352°
Eccentric anomaly
191.3398°
Mean motion
3.79252 °/min
Orbital period
94.92 mins
BSTAR
0.000066327
Loading maneuver chart data...
Computing Atmospheric mass density...
Loading historical data...
Loading historical data...
Loading historical data...
Loading historical data...
Loading historical data...
Loading historical data...
Loading historical data...

Documentation

Showing up to 5 results
|